Regional Weather Roundup
Issued by NWS

Home | Current Version | Previous Version | Text Only | Print | Product List | Glossary Off
Versions: 1 2 3 4 5 6 7 8 9 10 11 12 13 14 15 16 17 18 19 20 21 22 23 24 25 26 27 28 29 30 31 32 33 34 35 36 37 38 39 40 41 42 43 44 45 46 47 48 49 50

000
ASUS43 KTOP 311159
RWRKS

WEATHER ROUNDUP FOR KANSAS
NATIONAL WEATHER SERVICE GOODLAND KS
700 AM CDT FRI OCT 31 2014

NOTE:  "FAIR" INDICATES FEW OR NO CLOUDS BELOW 12,000 FEET WITH NO
SIGNIFICANT WEATHER AND/OR OBSTRUCTIONS TO VISIBILITY.

KSZ001>006-013>018-027>032-041>047-311300-
NORTHWEST KANSAS

CITY           SKY/WX    TMP DP  RH WIND       PRES   REMARKS
GOODLAND       PTCLDY    24  23  96 E5        30.47S
6HR MIN TEMP:  24; 6HR MAX TEMP:  37;

HAYS           CLOUDY    36  27  69 NE13G21   30.50R WCI  27
HILL CITY      CLOUDY    34  29  82 NE15G21   30.52R WCI  24
6HR MIN TEMP:  32; 6HR MAX TEMP:  42;

RUSSELL        CLOUDY    33  29  85 N16       30.49R WCI  23
6HR MIN TEMP:  33; 6HR MAX TEMP:  41;

$$

KSZ061>065-074>080-084>089-311300-
SOUTHWEST KANSAS

CITY           SKY/WX    TMP DP  RH WIND       PRES   REMARKS
DODGE CITY     CLEAR     32  29  88 N12       30.45S WCI  23
6HR MIN TEMP:  31; 6HR MAX TEMP:  45;

ELKHART          N/A     37  26  64 N3          N/A
GARDEN CITY    CLEAR     32  30  92 N8        30.46R
6HR MIN TEMP:  31; 6HR MAX TEMP:  44;

GREAT BEND     CLEAR     34  27  75 N14G21    30.48S WCI  24
LIBERAL        CLEAR     37  28  70 NE9       30.46S
$$

KSZ066>073-081>083-090>101-311300-
SOUTHEAST KANSAS

CITY           SKY/WX    TMP DP  RH WIND       PRES   REMARKS
CHANUTE        CLOUDY    46  37  71 N15G28    30.36R
6HR MIN TEMP:  46; 6HR MAX TEMP:  51;

COFFEYVILLE    PTCLDY    48  39  71 N17G24    30.33R
6HR MIN TEMP:  46; 6HR MAX TEMP:  54; 6HR PCP: TRACE;

HUTCHINSON     CLEAR     38  32  79 N10       30.45R WCI  31
6HR MIN TEMP:  38; 6HR MAX TEMP:  48;

MEDICINE LODGE   N/A     38  35  89 N15       30.43R WCI  29
NEWTON         PTCLDY    37  27  65 N20       30.45R WCI  27
PARSONS        CLOUDY    49  40  71 N13G20    30.35R
6HR MIN TEMP:  46; 6HR MAX TEMP:  52;

WICHITA INTL   MOCLDY    45  34  65 N17G25    30.41R
6HR MIN TEMP:  45; 6HR MAX TEMP:  53;

WICHITA JABRA  PTCLDY    41  33  73 N17       30.41R
6HR MIN TEMP:  41; 6HR MAX TEMP:  49;

WICHITA MCCONL PTCLDY    43  36  75 N14       30.41R
WINFIELD       CLOUDY    46  36  68 N18G28    30.39R
6HR MIN TEMP:  43; 6HR MAX TEMP:  53;

$$

KSZ007>012-019>026-033>040-048>060-102>105-311300-
NORTHEAST KANSAS

CITY           SKY/WX    TMP DP  RH WIND       PRES   REMARKS
CONCORDIA      CLOUDY    32  26  78 NE13G20   30.51R WCI  22
6HR MIN TEMP:  32; 6HR MAX TEMP:  45;

EMPORIA        MOCLDY    38  30  73 N16G25    30.41R WCI  29
6HR MIN TEMP:  38; 6HR MAX TEMP:  47;

LAWRENCE       FLURRIES  36  26  67 N17       30.44R WCI  26
6HR MIN TEMP:  36; 6HR MAX TEMP:  50; 6HR PCP: TRACE;

MANHATTAN      CLOUDY    36  27  69 NE21G26   30.49R WCI  25
6HR MIN TEMP:  35; 6HR MAX TEMP:  49;

OLATHE IND     CLOUDY    38  29  70 N24       30.39R WCI  27
6HR MIN TEMP:  38; 6HR MAX TEMP:  49;

OLATHE EXE     CLOUDY    39  29  67 N18       30.37R WCI  30
6HR MIN TEMP:  39; 6HR MAX TEMP:  50;

SALINA         MOCLDY    37  28  70 N15       30.49R WCI  28
6HR MIN TEMP:  37; 6HR MAX TEMP:  47;

TOPEKA BILLARD CLOUDY    36  26  67 N18G24    30.47R WCI  26
6HR MIN TEMP:  35; 6HR MAX TEMP:  50;

TOPEKA FORBES  MOCLDY    35  24  64 N20G29    30.44R WCI  24
6HR MIN TEMP:  35; 6HR MAX TEMP:  49;

$$



USA.gov is the U.S. government's official web portal to all federal, state and local government web resources and services.